This is the latest recevied weather packets stored in our database for station/object KD4EG. If no packets are shown the sender has not sent any weather packets the latest 10 day(s).
| Time | Temp. | Humidity | Pressure | Rain* | Wind** | Luminosity | Snow |
|---|---|---|---|---|---|---|---|
| 1777776158 | 7.22° C | 64% | 1017.4 hPa | 0 mm | - | 0 W/m² | - |
| 1777775855 | 7.22° C | 66% | 1017.4 hPa | 0 mm | - | 0 W/m² | - |
| 1777775552 | 7.22° C | 66% | 1017.4 hPa | 0 mm | - | 0 W/m² | - |
| 1777775248 | 7.22° C | 66% | 1017.4 hPa | 0 mm | - | 0 W/m² | - |
| 1777774948 | 7.22° C | 67% | 1017.2 hPa | 0 mm | - | 0 W/m² | - |
| 1777774645 | 7.78° C | 65% | 1017 hPa | 0 mm | - | 0 W/m² | - |
| 1777774341 | 7.78° C | 63% | 1017.2 hPa | 0 mm | - | 0 W/m² | - |
| 1777774039 | 8.33° C | 62% | 1017.1 hPa | 0 mm | - | 0 W/m² | - |
| 1777773736 | 8.33° C | 61% | 1017.2 hPa | 0 mm | - | 0 W/m² | - |
| 1777773433 | 8.33° C | 61% | 1017.1 hPa | 0 mm | - | 0 W/m² | - |
| 1777773130 | 8.33° C | 61% | 1017.2 hPa | 0 mm | - | 0 W/m² | - |
| 1777772826 | 8.33° C | 63% | 1016.7 hPa | 0 mm | - | 0 W/m² | - |
| 1777772524 | 8.33° C | 63% | 1017 hPa | 0 mm | - | 0 W/m² | - |
| 1777772221 | 8.89° C | 61% | 1017 hPa | 0 mm | - | 0 W/m² | - |
| 1777771919 | 8.89° C | 59% | 1017.1 hPa | 0 mm | - | 0 W/m² | - |
| 1777771615 | 9.44° C | 58% | 1016.7 hPa | 0 mm | - | 0 W/m² | - |
| 1777771313 | 9.44° C | 57% | 1016.8 hPa | 0 mm | - | 0 W/m² | - |
| 1777771009 | 9.44° C | 56% | 1016.7 hPa | 0 mm | - | 0 W/m² | - |
| 1777770706 | 10° C | 53% | 1016.8 hPa | 0 mm | - | 0 W/m² | - |
| 1777770402 | 10° C | 55% | 1016.8 hPa | 0 mm | - | 0 W/m² | - |
| 1777770099 | 10° C | 53% | 1016.7 hPa | 0 mm | - | 0 W/m² | - |
| 1777769797 | 10° C | 52% | 1016.6 hPa | 0 mm | - | 0 W/m² | - |
| 1777769494 | 10.56° C | 51% | 1016.6 hPa | 0 mm | - | 0 W/m² | - |
| 1777769190 | 10.56° C | 50% | 1016.4 hPa | 0 mm | - | 0 W/m² | - |
| 1777768889 | 11.11° C | 48% | 1016.5 hPa | 0 mm | - | 0 W/m² | - |
* Rain latest hour (hover to see other rain measurements)
** Current wind speed in m/s (hover to see current wind gust speed)